KAITUO 1B
1 40912U 15049P   18003.21555765  .00001309  00000-0  66944-4 0  9999
2 40912  97.4511  12.9274 0014094 220.8147 202.9971 15.18345541126637
TIANWANG 1C (TW-1C)
1 40926U 15051B   18003.40788272  .00007142  00000-0  14557-3 0  9992
2 40926  97.2061  46.6241 0011174 150.9868 334.2472 15.46469502127829
TIANWANG 1B (TW-1B)
1 40927U 15051C   18003.49220963  .00007208  00000-0  15286-3 0  9993
2 40927  97.2149  46.6285 0011080 162.2129 305.6278 15.45304410127761
TIANWANG 1A (TW-1A)
1 40928U 15051D   18003.49577228  .00003104  00000-0  85813-4 0  9998
2 40928  97.2057  40.6606 0011512 188.0672 278.1405 15.37720783127469
LAPAN A2
1 40931U 15052B   18002.97840148  .00000656  00000-0  24014-5 0  9995
2 40931   5.9973 248.1761 0012562 193.1097 166.8754 14.76560439122543
LQSAT
1 40958U 15057A   18003.43843457  .00000029  00000-0  12322-4 0  9999
2 40958  97.9599  80.0559 0019015 141.2095 219.0479 14.73010148120599
CHUBUSAT 2
1 41338U 16012B   18002.94402492 +.00000354 +00000-0 +20928-4 0  9991
2 41338 031.0036 283.4483 0014037 237.0825 122.8460 14.99899314103002
CHUBUSAT 3
1 41339U 16012C   18003.17835412  .00000322  00000-0  18389-4 0  9993
2 41339  31.0097 280.7942 0013800 246.2670 113.6518 15.00092413103029
OUFTI-1
1 41458U 16025C   18003.08579810  .00002109  00000-0  11475-3 0  9999
2 41458  98.1600  56.9689 0170888 341.4068  18.0988 15.04120090 92613
E-STAR-2
1 41459U 16025D   18003.13205041  .00001695  00000-0  93559-4 0  9991
2 41459  98.1626  56.9185 0171552 342.0447  17.4772 15.03895794 92613
AAUSAT 4
1 41460U 16025E   18003.38926400  .00002205  00000-0  11956-3 0  9997
2 41460  98.1545  57.4626 0163190 338.2794  21.1557 15.05125646 92697
NUSAT 1
1 41557U 16033B   18003.21618470  .00001388  00000-0  53647-4 0  9995
2 41557  97.4493  87.6770 0014561  27.2286 332.9713 15.27884281 88964
BEESAT 4
1 41619U 16040W   18003.16632001  .00001539  00000-0  71113-4 0  9998
2 41619  97.4382  68.4461 0013417  89.5036 270.7738 15.21630357 72996
PRATHAM
1 41783U 16059A   18002.75151204  .00000067  00000-0  22598-4 0  9993
2 41783  98.1421  66.7839 0032416 254.2565 105.5061 14.62891730 67770
ALSAT 1N
1 41789U 16059G   18003.39432884  .00000080  00000-0  24388-4 0  9990
2 41789  98.1424  68.3107 0027054 244.7603 115.0825 14.64116110 67907
NAYIF 1
1 42017U 17008BX  18002.91701331 +.00001711 +00000-0 +73798-4 0  9994
2 42017 097.4711 068.8166 0005236 231.7849 128.2917 15.23910031048894
LILACSAT-1
1 42725U 98067ME  18003.17848958  .00021282  00000-0  24024-3 0  9992
2 42725  51.6383 115.0271 0005172 332.7315  27.3407 15.62430006 34663
MAX VALIER SAT
1 42778U 17036P   18003.13129795  .00001059  00000-0  50907-4 0  9994
2 42778  97.4272  65.4084 0011199 289.8659  70.1369 15.20954078 29419
